STARLINK-5633, 55410

Orbit data source: Space-Track

STARLINK-5633, 55410 is a payload satellite owned by SpaceX/Seattle (US) in LEO that was launched on Tue, 31 Jan 2023 UTC via an FALCON 9 launch vehicle from the Air Force Western Test Range (AFWTR). Payload-class satellites include a variety of spacecraft equipped with specific instruments for various scientific and technological missions. These include communications satellites like Starlink; space stations such as the ISS; scientific satellites like the Hubble; Earth observation satellites from companies like Planet Labs, Umbra, and HawkEye 360; GPS; miniature CubeSats for education and research; and military/defense satellites.

Loading next visibility...
Identifier
55410, 2023-014V
Orbit
LEO
Country
Flag of USUS
Related business
Manufacturer
SpaceX/Seattle
Mission
Operational Commercial Communications
Bus & Motor
STARLINK, Unknown motor
Mass
305 kg wet, ~290 kg dry
Launch date (UTC)
2023-01-31 (3 years ago)
Launch vehicle
FALCON 9
Launch site
Air Force Western Test Range (AFWTR)
Object type
Payload
Rocket body
Debris
Shape & HBR
Box + 1 Pan, 10.1 m
Radar Cross Section
13.562 m², Large (>1 m²)

Expand to show TLE details & history
Last TLE update: 2 days ago

TLE from 2 days ago
0 STARLINK-5633
1 55410U 23014V   26171.34870683 -.00000015  00000-0  65685-5 0  9993
2 55410  69.9997 185.4473 0003696 265.7687  94.3049 14.98331536186943
Epoch: 2026-06-20T08:22Z
TLE epoch observation values (Epoch: 2026-06-20T08:22:08.270Z)
Latitude
-0.00007°
Longitude
151.3482°
Altitude
574.669 km
Speed
7.574 km/s
True Right ascension
12h 21m 47s
True Declination
0° 00' 00"
Sunlit
Object was in daylight at epoch
Visualization orbit readout
Latitude
Unknown
Longitude
Unknown
Altitude
Unknown
Speed
Unknown
Apparent Right ascension
Unknown
Apparent Declination
Unknown
Sunlit
N/A
Visualization observer readout
Local Sidereal Time
21:33:30
Azimuth
Unknown
Elevation
Unknown
Doppler factor
Unknown
Orbital elements
Apogee altitude
572.567 km
Perigee altitude
567.431 km
Semi-major axis
6,948.136 km
Eccentricity
0.00037
Inclination
69.9997°
RAAN
185.4473°
Arg. of periapsis
265.7687°
True anomaly
94.34713°
Mean anomaly
94.3049°
Eccentric anomaly
94.32602°
Mean motion
3.74749 °/min
Orbital period
96.06 mins
BSTAR
0.0000065685
Loading maneuver chart data...
Computing Atmospheric mass density...

Documentation

Showing up to 5 results
|